Weather History for Bad Axe, MI

Change the Weather History Date:

Tuesday, November 5, 2013

  Actual Average (KP58) Record (KP58)
Temperature  
Mean Temperature 48 °F -  
Max Temperature 56 °F 48 °F 71 °F (2008)
Min Temperature 41 °F 36 °F 28 °F (2002)
Degree Days  
Heating Degree Days 16    
Moisture  
Dew Point 42 °F    
Average Humidity 75    
Maximum Humidity 82    
Minimum Humidity 66    
Precipitation  
Precipitation 0.00 in - - ()
Sea Level Pressure  
Sea Level Pressure 30.27 in    
Wind  
Wind Speed 9 mph (South)    
Max Wind Speed 14 mph    
Max Gust Speed 22 mph    
Visibility 10 miles    
Events      
Averages and records for this station are not official NWS values.
T = Trace of Precipitation, MM = Missing Value Source: NWS Daily Summary

Daily Weather History Graph

Daily Weather History Graph

Search for Another Location

Airport:

Trip Planner

Search our weather history database for the weather conditions in past years. The results will help you decide how hot, cold, wet, or windy it might be!

Date:

Astronomy

Nov. 05, 2013 Rise Set
Actual Time 7:13 AM EST 5:16 PM EST
Civil Twilight 6:43 AM EST 5:47 PM EST
Nautical Twilight 6:09 AM EST 6:21 PM EST
Astronomical Twilight 5:35 AM EST 6:54 PM EST
Moon 9:30 AM EST (11/5) 7:14 PM EST (11/5)
Length of Visible Light 11h 03m
Length of Day
10h 03m
Waxing Crescent, 6% of the Moon is Illuminated
Nov 5
Waxing Crescent
Nov 10
First Quarter
Nov 17
Full
Nov 25
Last Quarter
Dec 2
New

Hourly Weather History & Observations

Time (EST) Temp. Windchill Dew Point Humidity Pressure Visibility Wind Dir Wind Speed Gust Speed Precip Events Conditions
12:15 AM 42.1 °F 35.2 °F 32.2 °F 68% 30.27 in 10.0 mi South 12.7 mph - N/A   Overcast
12:35 AM 41.9 °F 35.9 °F 32.7 °F 70% 30.28 in 10.0 mi South 10.4 mph - N/A   Overcast
12:54 AM 42.1 °F 36.1 °F 33.1 °F 70% 30.28 in 10.0 mi South 10.4 mph 17.3 mph N/A   Overcast
1:14 AM 41.9 °F 35.9 °F 33.6 °F 72% 30.28 in 10.0 mi South 10.4 mph - N/A   Overcast
1:35 AM 42.8 °F 37.0 °F 34.2 °F 72% 30.28 in 10.0 mi South 10.4 mph - N/A   Overcast
1:54 AM 43.7 °F 37.7 °F 34.7 °F 71% 30.27 in 10.0 mi South 11.5 mph - N/A   Overcast
2:15 AM 43.9 °F 37.9 °F 34.9 °F 71% 30.28 in 10.0 mi South 11.5 mph - N/A   Overcast
2:35 AM 44.1 °F 38.1 °F 35.6 °F 72% 30.28 in 10.0 mi South 11.5 mph - N/A   Overcast
2:54 AM 44.2 °F 38.4 °F 35.6 °F 72% 30.28 in 10.0 mi South 11.5 mph - N/A   Overcast
3:15 AM 44.6 °F 39.7 °F 36.1 °F 72% 30.28 in 10.0 mi South 9.2 mph - N/A   Overcast
3:35 AM 44.4 °F 39.5 °F 36.5 °F 74% 30.27 in 10.0 mi South 9.2 mph - N/A   Overcast
3:54 AM 44.6 °F 40.2 °F 36.9 °F 74% 30.27 in 10.0 mi South 8.1 mph - N/A   Overcast
4:15 AM 44.6 °F 39.7 °F 37.0 °F 75% 30.27 in 10.0 mi South 9.2 mph - N/A   Overcast
4:35 AM 45.1 °F 40.3 °F 37.4 °F 74% 30.27 in 10.0 mi South 9.2 mph - N/A   Overcast
4:54 AM 45.5 °F 40.8 °F 37.6 °F 74% 30.28 in 10.0 mi South 9.2 mph - N/A   Overcast
5:15 AM 45.5 °F 40.8 °F 37.9 °F 75% 30.28 in 10.0 mi South 9.2 mph - N/A   Overcast
5:34 AM 45.5 °F 40.8 °F 38.3 °F 76% 30.28 in 10.0 mi South 9.2 mph - N/A   Overcast
5:55 AM 45.7 °F 41.5 °F 38.5 °F 76% 30.28 in 10.0 mi South 8.1 mph - N/A   Overcast
6:15 AM 45.7 °F 41.0 °F 38.7 °F 76% 30.28 in 10.0 mi South 9.2 mph - N/A   Overcast
6:34 AM 45.9 °F 41.7 °F 39.0 °F 77% 30.28 in 10.0 mi South 8.1 mph - N/A   Overcast
6:55 AM 46.0 °F 41.9 °F 39.2 °F 77% 30.29 in 10.0 mi South 8.1 mph - N/A   Overcast
7:15 AM 46.0 °F 42.5 °F 39.4 °F 78% 30.29 in 10.0 mi South 6.9 mph - N/A   Overcast
7:34 AM 46.4 °F 42.9 °F 39.7 °F 78% 30.30 in 10.0 mi South 6.9 mph - N/A   Overcast
7:55 AM 46.8 °F - 40.1 °F 78% 30.31 in 10.0 mi SSW 6.9 mph - N/A   Overcast
8:15 AM 47.1 °F - 40.1 °F 77% 30.31 in 10.0 mi SSW 5.8 mph - N/A   Overcast
8:34 AM 47.3 °F - 40.5 °F 77% 30.32 in 10.0 mi SSW 6.9 mph - N/A   Overcast
8:55 AM 47.7 °F - 41.0 °F 78% 30.32 in 10.0 mi South 5.8 mph - N/A   Overcast
9:15 AM 48.2 °F - 41.4 °F 77% 30.32 in 10.0 mi South 5.8 mph - N/A   Overcast
9:34 AM 48.6 °F - 41.9 °F 78% 30.31 in 10.0 mi South 5.8 mph - N/A   Overcast
9:55 AM 49.3 °F - 41.9 °F 76% 30.32 in 10.0 mi South 6.9 mph - N/A   Overcast
10:14 AM 49.6 °F - 41.9 °F 75% 30.32 in 10.0 mi SSW 6.9 mph - N/A   Overcast
10:35 AM 50.2 °F - 42.3 °F 74% 30.32 in 10.0 mi SSW 6.9 mph - N/A   Overcast
10:54 AM 50.9 °F - 42.8 °F 74% 30.33 in 10.0 mi SSW 6.9 mph - N/A   Overcast
11:15 AM 51.8 °F - 43.7 °F 74% 30.33 in 10.0 mi SSW 6.9 mph - N/A   Overcast
11:35 AM 53.4 °F - 44.1 °F 71% 30.32 in 10.0 mi SW 10.4 mph - N/A   Overcast
11:54 AM 54.7 °F - 44.4 °F 68% 30.31 in 10.0 mi SSW 8.1 mph - N/A   Overcast
12:15 PM 54.9 °F - 44.6 °F 68% 30.30 in 10.0 mi SSW 6.9 mph - N/A   Overcast
12:35 PM 55.0 °F - 45.0 °F 69% 30.30 in 10.0 mi SW 8.1 mph - N/A   Overcast
12:54 PM 55.8 °F - 45.1 °F 67% 30.30 in 10.0 mi SW 6.9 mph - N/A   Overcast
1:15 PM 56.3 °F - 45.0 °F 66% 30.29 in 10.0 mi SW 6.9 mph - N/A   Overcast
1:35 PM 56.7 °F - 45.5 °F 66% 30.29 in 10.0 mi SSW 6.9 mph - N/A   Overcast
1:54 PM 56.7 °F - 45.5 °F 66% 30.29 in 10.0 mi South 6.9 mph - N/A   Overcast
2:15 PM 56.5 °F - 45.7 °F 67% 30.29 in 10.0 mi South 10.4 mph - N/A   Overcast
2:35 PM 56.7 °F - 46.0 °F 68% 30.28 in 10.0 mi South 6.9 mph - N/A   Overcast
2:54 PM 56.7 °F - 45.7 °F 67% 30.28 in 10.0 mi South 10.4 mph - N/A   Overcast
3:15 PM 55.9 °F - 45.5 °F 68% 30.28 in 10.0 mi South 9.2 mph - N/A   Overcast
3:34 PM 55.4 °F - 45.1 °F 68% 30.28 in 10.0 mi South 6.9 mph - N/A   Mostly Cloudy
3:54 PM 54.3 °F - 45.1 °F 71% 30.28 in 10.0 mi South 6.9 mph - N/A   Mostly Cloudy
4:14 PM 53.6 °F - 45.9 °F 75% 30.27 in 10.0 mi SSE 5.8 mph - N/A   Mostly Cloudy
4:34 PM 52.3 °F - 45.0 °F 76% 30.27 in 10.0 mi SSE 4.6 mph - N/A   Scattered Clouds
4:55 PM 51.6 °F - 45.1 °F 79% 30.27 in 10.0 mi SSE 5.8 mph - N/A   Mostly Cloudy
5:14 PM 51.8 °F - 44.8 °F 77% 30.26 in 10.0 mi SSE 6.9 mph - N/A   Overcast
5:34 PM 51.8 °F - 44.6 °F 76% 30.27 in 10.0 mi SSE 5.8 mph - N/A   Overcast
5:55 PM 51.4 °F - 44.8 °F 78% 30.27 in 10.0 mi SSE 5.8 mph - N/A   Overcast
6:15 PM 51.3 °F - 44.6 °F 78% 30.26 in 10.0 mi SSE 5.8 mph - N/A   Overcast
6:34 PM 51.3 °F - 44.8 °F 78% 30.26 in 10.0 mi SSE 8.1 mph - N/A   Overcast
6:55 PM 51.8 °F - 44.6 °F 76% 30.25 in 10.0 mi SSE 8.1 mph - N/A   Overcast
7:15 PM 51.4 °F - 44.6 °F 77% 30.24 in 10.0 mi SSE 6.9 mph - N/A   Overcast
7:34 PM 51.3 °F - 44.8 °F 78% 30.24 in 10.0 mi South 9.2 mph - N/A   Overcast
7:55 PM 50.9 °F - 44.6 °F 79% 30.23 in 10.0 mi South 9.2 mph - N/A   Mostly Cloudy
8:14 PM 50.9 °F - 44.6 °F 79% 30.23 in 10.0 mi South 9.2 mph - N/A   Scattered Clouds
8:34 PM 51.1 °F - 44.8 °F 79% 30.22 in 10.0 mi South 11.5 mph 16.1 mph N/A   Clear
8:55 PM 51.4 °F - 45.0 °F 79% 30.22 in 10.0 mi South 11.5 mph - N/A   Mostly Cloudy
9:14 PM 51.4 °F - 45.1 °F 79% 30.22 in 10.0 mi South 11.5 mph - N/A   Overcast
9:34 PM 51.1 °F - 45.5 °F 81% 30.21 in 10.0 mi South 9.2 mph - N/A   Overcast
9:55 PM 51.1 °F - 45.5 °F 81% 30.20 in 10.0 mi South 9.2 mph - N/A   Mostly Cloudy
10:14 PM 51.1 °F - 45.5 °F 81% 30.19 in 10.0 mi South 11.5 mph - N/A   Mostly Cloudy
10:35 PM 50.9 °F - 45.7 °F 82% 30.19 in 10.0 mi South 11.5 mph 17.3 mph N/A   Overcast
10:54 PM 51.8 °F - 46.2 °F 81% 30.17 in 10.0 mi South 12.7 mph - N/A   Overcast
11:14 PM 51.8 °F - 46.0 °F 81% 30.16 in 10.0 mi South 12.7 mph - N/A   Mostly Cloudy
11:35 PM 51.3 °F - 45.5 °F 81% 30.15 in 10.0 mi South 10.4 mph - N/A   Scattered Clouds
11:54 PM 52.2 °F - 45.9 °F 79% 30.13 in 10.0 mi South 13.8 mph 21.9 mph N/A   Mostly Cloudy